User: anonymous   Login
Location: Novokuznetsk
(53.7500°N, 87.1000°E)
Time: 21:40:19
(UTC+06:00)
Language:

ISS - Orbit

View from above orbital plane
View from above orbital plane
View from above satellite
View from above satellite

Ground track
Ground track

The orbit data is extracted from the following two-line orbital elements,

1 25544U 98067A   18023.84369045  .00016717  00000-0  10270-3 0  9022
2 25544  51.6424  18.2976 0003712  33.1058 327.0327 15.54216517 16064
Epoch (UTC): 23 January 2018 20:14:54
Eccentricity: 0.0003712
inclination: 51.6424°
perigee height: 402 km
apogee height: 407 km
right ascension of ascending node: 18.2976°
argument of perigee: 33.1058°
revolutions per day: 15.54216517
mean anomaly at epoch: 327.0327°
orbit number at epoch: 1606

The dashed part of the orbit path shows where the satellite is in the earth's shadow,  

DLR